Showing default

VIZARD-ION, 61749

Orbit data source: Space-Track

VIZARD-ION, 61749 is a Commonwealth of Independent States-origin payload satellite in SSO that was launched on Mon, 04 Nov 2024 UTC via a SOYUZ-2-1B launch vehicle from the Vostochny Cosmodrome (VOSTO). Payload-class satellites include a variety of spacecraft equipped with specific instruments for various scientific and technological missions. These include communications satellites like Starlink; space stations such as the ISS; scientific satellites like the Hubble; Earth observation satellites from companies like Planet Labs, Umbra, and HawkEye 360; GPS; miniature CubeSats for education and research; and military/defense satellites.

Loading next visibility...
Identifier
61749, 2024-199Q
Orbit
SSO
Country
Flag of CISCIS
Related business
Manufacturer
Geoskan
Mission
Operational Commercial Technology
Bus & Motor
CUBESAT 3U, Unknown motor
Mass
3 kg wet, 3 kg dry
Launch date (UTC)
2024-11-04 (1 year ago)
Launch vehicle
SOYUZ-2-1B
Launch site
Vostochny Cosmodrome (VOSTO)
Object type
Payload
Rocket body
Debris
Shape & HBR
Box, 0.1 m
Radar Cross Section
0.035 m², Small (<0.1 m²)

Expand to show TLE details & history
Last TLE update: 10 hours ago

TLE from 10 hours ago
0 VIZARD-ION
1 61749U 24199Q   26061.79020460  .00035727  00000-0  68423-3 0  9995
2 61749  97.3165 296.3319 0006960 310.5526  49.5118 15.47934897121072
Epoch: 2026-03-02T18:57Z
TLE epoch observation values (Epoch: 2026-03-02T18:57:53.677Z)
Latitude
-0.00001°
Longitude
-148.72032°
Altitude
422.827 km
Speed
7.659 km/s
True Right ascension
19h 45m 19s
True Declination
0° 00' 00"
Sunlit
Object was in daylight at epoch
Visualization orbit readout
Latitude
Unknown
Longitude
Unknown
Altitude
Unknown
Speed
Unknown
Apparent Right ascension
Unknown
Apparent Declination
Unknown
Sunlit
N/A
Visualization observer readout
Local Sidereal Time
08:58:20
Azimuth
Unknown
Elevation
Unknown
Doppler factor
Unknown
Orbital elements
Apogee altitude
424.424 km
Perigee altitude
414.962 km
Semi-major axis
6,797.83 km
Eccentricity
0.0007
Inclination
97.3165°
RAAN
296.3319°
Arg. of periapsis
310.5526°
True anomaly
49.57249°
Mean anomaly
49.5118°
Eccentric anomaly
49.54214°
Mean motion
3.87247 °/min
Orbital period
92.96 mins
BSTAR
0.00068423
Loading maneuver chart data...
Computing Atmospheric mass density...
Loading historical data...
Loading historical data...
Loading historical data...
Loading historical data...
Loading historical data...
Loading historical data...
Loading historical data...

Documentation

Showing up to 5 results
|